Inquirer Daily News

Weather

Get conditions and forecasts for any City, State, ZIP code or Country:  
Trenton, NJ
on Friday, December 7, 2012

Friday
Previous Day Next Day
Daily Summary
 ActualAverageRecord
Temperature
Mean Temperature °F 38°F  
Max Temperature 42°F 46°F 76°F (1998)
Min Temperature 26°F 30°F 9°F (2002)
Degree Days
Heating Degree Days 31 27  
Month to date heating degree days 142 181  
Since 1 July heating degree days 1149 1157  
Cooling Degree Days 0 0  
Month to date cooling degree days 0 0  
Year to date cooling degree days 1234 965  
Moisture
Dew Point 34°F   
Average Humidity 86    
Maximum Humidity 100    
Minimum Humidity 72    
Precipitation
Precipitation 0.23 in 0.13 in 2.06 in (2011)
Month to date precipitation 0.32 0.97  
Year to date precipitation 33.55 43.71  
Wind
Wind Speed 1 mph   
Max Wind Speed 6 mph   
Max Gust Speed 18 mph   
Visibility 6 miles   
Events Rain   

Key: T is trace of precipitation, MM is missing value
Source: NWS Daily Summary
Time(EST)TemperatureDew PointHumidity Pressure Visibility Wind DirectionWind SpeedGust SpeedPrecipitationEvents Conditions
12:53 AM 30.0°F 23.0°F 75% 30.26 in 10.0 miles Calm Calm - N/A   Clear
1:53 AM 28.9°F 23.0°F 78% 30.24 in 10.0 miles Calm Calm - N/A   Clear
2:53 AM 27.0°F 23.0°F 85% 30.23 in 10.0 miles Calm Calm - N/A   Clear
3:53 AM 28.9°F 24.1°F 82% 30.21 in 10.0 miles Calm Calm - N/A   Clear
4:53 AM 28.0°F 24.1°F 85% 30.20 in 10.0 miles Calm Calm - N/A   Clear
5:16 AM 28.4°F 24.8°F 86% 30.20 in 10.0 miles NE 3.5 mph - N/A   Mostly Cloudy
5:25 AM 28.4°F 24.8°F 86% 30.20 in 10.0 miles Calm Calm - N/A   Scattered Clouds
5:53 AM 28.9°F 25.0°F 85% 30.19 in 10.0 miles Calm Calm - N/A   Partly Cloudy
6:34 AM 30.2°F 26.6°F 86% 30.20 in 10.0 miles Calm Calm - N/A   Overcast
6:53 AM 30.9°F 26.1°F 82% 30.20 in 10.0 miles Calm Calm - N/A   Overcast
7:53 AM 32.0°F 27.0°F 82% 30.19 in 10.0 miles Calm Calm - N/A   Overcast
8:26 AM 33.8°F 28.4°F 81% 30.20 in 10.0 miles Calm Calm - N/A   Overcast
8:53 AM 35.1°F 30.0°F 82% 30.19 in 10.0 miles Calm Calm - N/A   Overcast
9:53 AM 37.0°F 30.9°F 79% 30.18 in 10.0 miles Calm Calm - N/A   Overcast
10:53 AM 37.9°F 33.1°F 83% 30.17 in 6.0 miles Calm Calm - 0.01 in Rain Light Rain
11:53 AM 37.0°F 35.1°F 93% 30.15 in 4.0 miles North 4.6 mph - 0.03 in Rain Light Rain
12:03 PM 37.4°F 35.6°F 93% 30.15 in 3.0 miles North 3.5 mph - 0.01 in Rain Light Rain
12:24 PM 37.4°F 35.6°F 93% 30.14 in 4.0 miles Calm Calm - 0.02 in Rain Light Rain
12:53 PM 37.9°F 36.0°F 93% 30.12 in 4.0 miles North 3.5 mph - 0.05 in Rain Light Rain
1:26 PM 39.2°F 37.4°F 93% 30.11 in 4.0 miles Calm Calm - 0.01 in Rain Light Rain
1:37 PM 39.2°F 37.4°F 93% 30.11 in 5.0 miles Calm Calm - 0.01 in   Overcast
1:45 PM 39.2°F 37.4°F 93% 30.11 in 4.0 miles Calm Calm - 0.01 in   Overcast
1:53 PM 39.0°F 37.0°F 93% 30.09 in 3.0 miles Calm Calm - 0.01 in   Overcast
2:04 PM 39.2°F 37.4°F 93% 30.10 in 3.0 miles Calm Calm - N/A   Overcast
2:20 PM 39.2°F 37.4°F 93% 30.10 in 4.0 miles Calm Calm - N/A   Overcast
2:53 PM 39.9°F 37.9°F 93% 30.08 in 5.0 miles Calm Calm - N/A   Overcast
3:07 PM 39.2°F 37.4°F 93% 30.09 in 5.0 miles Calm Calm - N/A   Overcast
3:53 PM 39.9°F 37.9°F 93% 30.07 in 4.0 miles SE 4.6 mph - 0.00 in   Overcast
4:06 PM 39.2°F 37.4°F 93% 30.08 in 3.0 miles Calm Calm - N/A   Overcast
4:53 PM 39.9°F 37.9°F 93% 30.07 in 5.0 miles Calm Calm - 0.00 in   Overcast
5:26 PM 39.2°F 39.2°F 100% 30.07 in 4.0 miles Calm Calm - N/A   Overcast
5:44 PM 39.2°F 39.2°F 100% 30.08 in 4.0 miles Calm Calm - N/A   Overcast
5:53 PM 39.9°F 39.0°F 97% 30.07 in 4.0 miles Calm Calm - N/A   Overcast
6:23 PM 39.2°F 39.2°F 100% 30.07 in 4.0 miles Calm Calm - N/A   Overcast
6:53 PM 39.9°F 39.0°F 97% 30.06 in 4.0 miles Calm Calm - N/A   Overcast
7:32 PM 39.2°F 37.4°F 93% 30.07 in 4.0 miles North 3.5 mph - N/A   Overcast
7:53 PM 39.0°F 37.9°F 96% 30.06 in 4.0 miles North 3.5 mph - 0.00 in   Overcast
8:12 PM 39.2°F 37.4°F 93% 30.07 in 4.0 miles North 3.5 mph - N/A   Overcast
8:49 PM 39.2°F 37.4°F 93% 30.06 in 4.0 miles North 4.6 mph - N/A   Overcast
8:53 PM 39.9°F 39.0°F 97% 30.05 in 4.0 miles NNE 3.5 mph - N/A   Overcast
9:24 PM 41.0°F 39.2°F 93% 30.05 in 4.0 miles Calm Calm - N/A   Overcast
9:53 PM 41.0°F 39.9°F 96% 30.03 in 4.0 miles Calm Calm - N/A   Overcast
10:49 PM 41.0°F 39.2°F 93% 30.02 in 2.5 miles Calm Calm - 0.03 in Rain Rain
10:53 PM 42.1°F 39.9°F 92% 30.01 in 2.0 miles Calm Calm - 0.03 in Rain Light Rain
11:08 PM 42.8°F 39.2°F 87% 30.02 in 2.5 miles East 3.5 mph - 0.01 in Rain Light Rain
11:21 PM 42.8°F 39.2°F 87% 30.02 in 3.0 miles ENE 3.5 mph - 0.02 in Rain Light Rain
11:36 PM 42.8°F 39.2°F 87% 30.02 in 2.5 miles Calm Calm - 0.04 in Rain Rain
11:43 PM 42.8°F 39.2°F 87% 30.01 in 3.0 miles Calm Calm - 0.05 in Rain Light Rain
11:53 PM 41.0°F 39.9°F 96% 30.00 in 2.0 miles Calm Calm - 0.09 in Rain Heavy Rain
Astronomy
Sunrise:07:08 AM (EST) Moon Rise:12:24 AM (EST)12/7
Sunset:04:33 PM (EST) Moon Set:12:29 PM (EST)12/7
Moon Phase
Dec. 07 Dec. 13 Dec. 20 Dec. 28 Jan. 04

Copyright © 2014 The Weather Underground, Inc.